Calumet, MI

3:52 AM EST on February 24, 2017 (GMT -0500)
Houghton County Memorial

Weather History for KCMX - April, 2014

Change the Weather History Date:

Sunday, April 13, 2014

  Actual Average Record
Temperature  
Mean Temperature 34 °F -  
Max Temperature 37 °F 45 °F 73 °F (1998)
Min Temperature 32 °F 29 °F 13 °F (1992)
Degree Days  
Heating Degree Days 30    
Moisture  
Dew Point 31 °F    
Average Humidity 88    
Maximum Humidity 96    
Minimum Humidity 73    
Precipitation  
Precipitation 0.00 in - - ()
Sea Level Pressure  
Sea Level Pressure 29.83 in    
Wind  
Wind Speed 9 mph (NW)    
Max Wind Speed 21 mph    
Max Gust Speed 23 mph    
Visibility 6 miles    
Events Fog    
Averages and records for this station are not official NWS values.
T = Trace of Precipitation, MM = Missing Value Source: NWS Daily Summary

Daily Weather History Graph

Daily Weather History Graph

Search for Another Location

Airport or City:

Trip Planner

Search our weather history database for the weather conditions in past years. The results will help you decide how hot, cold, wet, or windy it might be!

Date:

Astronomy

Apr. 13, 2014 Rise Set
Actual Time 7:09 AM EDT 8:40 PM EDT
Civil Twilight 6:37 AM EDT 9:12 PM EDT
Nautical Twilight 5:59 AM EDT 9:50 PM EDT
Astronomical Twilight 5:17 AM EDT 10:32 PM EDT
Moon 7:13 PM EDT (4/13) 6:15 AM EDT (4/13)
Length of Visible Light 14h 34m
Length of Day
13h 30m
Waxing Gibbous, 97% of the Moon is Illuminated
Apr 13
Waxing Gibbous
Apr 15
Full
Apr 22
Last Quarter
Apr 29
New
May 6
First Quarter

Hourly Weather History & Observations

Time (EDT) Temp. Windchill Dew Point Humidity Pressure Visibility Wind Dir Wind Speed Gust Speed Precip Events Conditions
12:53 AM 32.0 °F 22.5 °F 30.0 °F 92% 29.87 in 0.2 mi East 12.7 mph - N/A Fog Fog
1:53 AM 32.0 °F 22.5 °F 30.9 °F 96% 29.87 in 0.2 mi ESE 12.7 mph - N/A Fog Fog
2:01 AM 32.0 °F 22.1 °F 30.2 °F 93% 29.83 in 0.5 mi ESE 13.8 mph - N/A Fog Fog
2:17 AM 32.0 °F 23.0 °F 30.2 °F 93% 29.83 in 0.2 mi East 11.5 mph 19.6 mph N/A Fog Fog
2:44 AM 32.0 °F 23.0 °F 30.2 °F 93% 29.81 in 0.2 mi East 11.5 mph - N/A Fog Fog
2:53 AM 32.0 °F 23.0 °F 30.9 °F 96% 29.83 in 0.2 mi East 11.5 mph - N/A Fog Fog
3:53 AM 32.0 °F 23.6 °F 30.9 °F 96% 29.84 in 0.2 mi East 10.4 mph - N/A Fog Fog
4:53 AM 32.0 °F 24.8 °F 30.9 °F 96% 29.81 in 0.2 mi East 8.1 mph - N/A Fog Fog
5:53 AM 32.0 °F - 30.9 °F 96% 29.82 in 0.2 mi Calm Calm - N/A Fog Fog
6:53 AM 33.1 °F - 30.9 °F 92% 29.81 in 0.2 mi Calm Calm - N/A Fog Fog
7:12 AM 33.8 °F - 30.2 °F 87% 29.77 in 0.2 mi Calm Calm - N/A Fog Fog
7:53 AM 33.1 °F - 30.9 °F 92% 29.81 in 0.2 mi Calm Calm - N/A Fog Fog
8:53 AM 33.1 °F - 32.0 °F 96% 29.83 in 0.2 mi Calm Calm - N/A Fog Fog
9:53 AM 33.1 °F 30.0 °F 32.0 °F 96% 29.84 in 0.5 mi West 3.5 mph - N/A Fog Fog
10:13 AM 33.8 °F 30.8 °F 32.0 °F 93% 29.80 in 0.2 mi West 3.5 mph - N/A Fog Fog
10:20 AM 33.8 °F 30.8 °F 32.0 °F 93% 29.80 in 1.0 mi West 3.5 mph - N/A   Overcast
10:24 AM 33.8 °F - 32.0 °F 93% 29.79 in 3.0 mi Calm Calm - N/A   Overcast
10:44 AM 35.6 °F 29.9 °F 32.0 °F 87% 29.79 in 6.0 mi WNW 6.9 mph - N/A   Overcast
10:53 AM 35.1 °F 30.1 °F 33.1 °F 92% 29.83 in 7.0 mi West 5.8 mph - N/A   Overcast
11:01 AM 35.6 °F 29.9 °F 33.8 °F 93% 29.80 in 5.0 mi West 6.9 mph - N/A   Overcast
11:46 AM 35.6 °F 28.0 °F 33.8 °F 93% 29.81 in 9.0 mi WNW 10.4 mph - N/A   Overcast
11:53 AM 36.0 °F 28.0 °F 33.1 °F 89% 29.85 in 10.0 mi WNW 11.5 mph - N/A   Overcast
12:18 PM 35.6 °F 28.6 °F 33.8 °F 93% 29.81 in 1.8 mi NW 9.2 mph - N/A   Overcast
12:29 PM 35.6 °F 29.9 °F 33.8 °F 93% 29.80 in 2.5 mi WNW 6.9 mph - N/A   Overcast
12:38 PM 35.6 °F 29.2 °F 33.8 °F 93% 29.80 in 5.0 mi WNW 8.1 mph - N/A   Overcast
12:53 PM 36.0 °F 30.3 °F 34.0 °F 93% 29.82 in 10.0 mi West 6.9 mph - N/A   Overcast
1:53 PM 37.9 °F 30.5 °F 33.1 °F 83% 29.83 in 10.0 mi West 11.5 mph - N/A   Overcast
2:53 PM 37.0 °F 27.7 °F 33.1 °F 86% 29.87 in 10.0 mi WNW 16.1 mph - N/A   Overcast
3:42 PM 35.6 °F 26.2 °F 32.0 °F 87% 29.84 in 7.0 mi WNW 15.0 mph - N/A   Overcast
3:53 PM 35.1 °F 25.5 °F 32.0 °F 89% 29.88 in 8.0 mi WNW 15.0 mph - N/A   Overcast
4:21 PM 35.6 °F 25.9 °F 32.0 °F 87% 29.82 in 10.0 mi NW 16.1 mph - N/A   Overcast
4:53 PM 36.0 °F 25.0 °F 32.0 °F 86% 29.85 in 10.0 mi WNW 20.7 mph - N/A   Overcast
5:03 PM 35.6 °F 24.5 °F 30.2 °F 81% 29.82 in 10.0 mi WNW 20.7 mph - N/A   Overcast
5:36 PM 35.6 °F 27.5 °F 30.2 °F 81% 29.82 in 10.0 mi WNW 11.5 mph - N/A   Overcast
5:53 PM 36.0 °F 29.0 °F 32.0 °F 86% 29.85 in 10.0 mi NW 9.2 mph - N/A   Overcast
6:00 PM 35.6 °F 29.2 °F 32.0 °F 87% 29.82 in 10.0 mi WNW 8.1 mph - N/A   Overcast
6:29 PM 35.6 °F 30.7 °F 32.0 °F 87% 29.81 in 10.0 mi West 5.8 mph - N/A   Overcast
6:39 PM 35.6 °F 29.9 °F 32.0 °F 87% 29.81 in 10.0 mi WNW 6.9 mph - N/A   Mostly Cloudy
6:53 PM 36.0 °F 30.3 °F 30.9 °F 82% 29.85 in 10.0 mi West 6.9 mph - N/A   Mostly Cloudy
7:53 PM 35.6 °F 29.2 °F 30.2 °F 81% 29.84 in 10.0 mi West 8.1 mph - N/A   Overcast
8:53 PM 36.0 °F 30.3 °F 28.9 °F 76% 29.86 in 10.0 mi WNW 6.9 mph - N/A   Overcast
9:53 PM 35.1 °F 27.9 °F 28.9 °F 78% 29.85 in 10.0 mi WNW 9.2 mph - N/A   Overcast
10:53 PM 36.0 °F 28.0 °F 28.0 °F 73% 29.86 in 10.0 mi NNW 11.5 mph - N/A   Overcast
11:32 PM 35.6 °F 25.9 °F 28.4 °F 75% 29.82 in 10.0 mi North 16.1 mph 23.0 mph N/A   Overcast
11:50 PM 35.6 °F 25.9 °F 28.4 °F 75% 29.81 in 10.0 mi North 16.1 mph 21.9 mph N/A   Overcast
11:53 PM 35.1 °F 25.9 °F 28.9 °F 78% 29.85 in 10.0 mi North 13.8 mph 21.9 mph N/A   Overcast